Weather in Rodniki

Russia / Ivanovo Oblast     57°06′25″N   41°44′00″E
temp.,
°C
wind,
m/s
gust,
m/s
humid.,
%
clouds,
%
prec.,
mm/h
press.,
hPa
HPBL,
m
13 august, sat
sat1300:00+16wnw237397 0.0 102246
03:00+15nw227910 0.0 102326
06:00+16nw118076 0.0 102333
09:00+22nnw115896 0.0 1023442
12:00+26wnw114776 0.0 10221350
15:00+27nw1142100 0.0 10211794
18:00+25ssw0054100 0.0 102015
21:00+19ssw1166100 0.0 102111
14 august, sun
sun1400:00+18ssw1171100 0.0 102111
03:00+18ssw1174100 0.0 102111
06:00+18sse1176100 0.0 102125
09:00+23s1159100 0.0 1022417
12:00+27se1146100 0.0 10211353
15:00+28ese113996 0.0 10202324
18:00+25ne345158 0.0 1020191
21:00+22ese256195 0.0 1021111
15 august, mon
mon1500:00+20ese246195 0.0 102180
03:00+19e246892 0.0 102185
06:00+18e2476100 0.0 102295
09:00+22ese246161 0.0 1023340
12:00+27ese224425 0.0 10231726
15:00+25ene3453100 0.0 1022160
18:00+23e3554100 0.0 102393
21:00+22ese2352100 0.0 102345
16 august, tue
tue1600:00+21ese2457100 0.0 102471
03:00+19ese2470100 0.0 102571
06:00+18ese2578100 0.0 1025106
09:00+24se3457100 0.0 1025468
12:00+28se334121 0.0 10242024
15:00+25ese2348100 0.0 102466
18:00+25e365188 0.0 1024256
21:00+22ese385665 0.0 1024186
17 august, wed
wed1700:00+19se376815 0.0 1024122
03:00+17se22760 0.0 102432
06:00+17ese24725 0.0 102589
09:00+23ese34495 0.0 1024475
12:00+27ese34365 0.0 10231626
15:00+28se33345 0.0 10222134
18:00+26e23465 0.0 1022120
21:00+19e35645 0.0 102278